WIF13P ENBR-EKYT

Flight info

Callsign WIF13P
Flight time 0h 46m
Altitude 30000
Route ENBR SID TINIG DCT OSKOM DCT NERDO P621 AAL STAR EKYT
Aircraft E290/M-VGDW/C

Departure

Time 2026-05-07 17:35
Airport Bergen Airport, Flesland (ENBR)

Arrival

Time 2026-05-07 18:22
Airport Aalborg Airport (EKYT)
Time Latitude Longitude Altitude Speed Heading
2026-05-07 17:15 60.28988 5.22641 177 ft 0 kts 158°
2026-05-07 17:20 60.28989 5.22639 177 ft 3 kts 158°
2026-05-07 17:20 60.29007 5.22625 177 ft 3 kts 158°
2026-05-07 17:20 60.29024 5.22611 177 ft 3 kts 158°
2026-05-07 17:21 60.29040 5.22597 178 ft 3 kts 158°
2026-05-07 17:21 60.29056 5.22584 179 ft 2 kts 158°
2026-05-07 17:21 60.29072 5.22571 180 ft 2 kts 158°
2026-05-07 17:21 60.28992 5.22625 177 ft 0 kts 178°
2026-05-07 17:22 60.29007 5.22624 177 ft 3 kts 178°
2026-05-07 17:22 60.29025 5.22623 177 ft 3 kts 178°
2026-05-07 17:22 60.29042 5.22622 178 ft 3 kts 178°
2026-05-07 17:23 60.29056 5.22622 178 ft 0 kts 178°
2026-05-07 17:23 60.29058 5.22622 178 ft 0 kts 178°
2026-05-07 17:25 60.29057 5.22622 178 ft 0 kts 178°
2026-05-07 17:26 60.29056 5.22621 178 ft 3 kts 184°
2026-05-07 17:26 60.29045 5.22608 178 ft 3 kts 212°
2026-05-07 17:26 60.29040 5.22570 178 ft 7 kts 260°
2026-05-07 17:26 60.29038 5.22468 178 ft 9 kts 265°
2026-05-07 17:27 60.29044 5.22374 178 ft 5 kts 306°
2026-05-07 17:27 60.29079 5.22313 179 ft 11 kts 291°
2026-05-07 17:27 60.29177 5.22192 172 ft 25 kts 349°
2026-05-07 17:27 60.29346 5.22137 164 ft 24 kts 351°
2026-05-07 17:28 60.29501 5.22089 158 ft 21 kts 349°
2026-05-07 17:28 60.29637 5.22035 154 ft 19 kts 349°
2026-05-07 17:28 60.29757 5.21991 150 ft 16 kts 352°
2026-05-07 17:28 60.29849 5.21966 154 ft 14 kts 352°
2026-05-07 17:29 60.29953 5.21932 158 ft 15 kts 349°
2026-05-07 17:29 60.30073 5.21886 163 ft 19 kts 348°
2026-05-07 17:29 60.30245 5.21832 171 ft 39 kts 351°
2026-05-07 17:29 60.30493 5.21747 182 ft 31 kts 351°
2026-05-07 17:30 60.30647 5.21680 199 ft 15 kts 323°
2026-05-07 17:30 60.30660 5.21567 181 ft 0 kts 259°
2026-05-07 17:33 60.30657 5.21535 180 ft 6 kts 259°
2026-05-07 17:33 60.30643 5.21409 180 ft 5 kts 242°
2026-05-07 17:33 60.30605 5.21391 179 ft 6 kts 168°
2026-05-07 17:34 60.30598 5.21394 179 ft 0 kts 169°
2026-05-07 17:34 60.30584 5.21399 179 ft 20 kts 169°
2026-05-07 17:34 60.30031 5.21584 161 ft 140 kts 171°
2026-05-07 17:35 60.28780 5.22032 644 ft 207 kts 170°
2026-05-07 17:35 60.27343 5.22563 1844 ft 204 kts 171°
2026-05-07 17:35 60.25877 5.23109 2670 ft 232 kts 171°
2026-05-07 17:35 60.24152 5.23755 3665 ft 267 kts 168°
2026-05-07 17:36 60.22319 5.24702 4867 ft 272 kts 169°
2026-05-07 17:36 60.20382 5.25404 6062 ft 286 kts 171°
2026-05-07 17:36 60.18479 5.25993 6528 ft 277 kts 172°
2026-05-07 17:36 60.16559 5.26539 6778 ft 279 kts 173°
2026-05-07 17:37 60.14649 5.27078 6944 ft 278 kts 173°
2026-05-07 17:37 60.12739 5.27621 7303 ft 276 kts 171°
2026-05-07 17:37 60.10946 5.29076 7801 ft 282 kts 140°
2026-05-07 17:37 60.09879 5.32259 8276 ft 285 kts 105°
2026-05-07 17:38 60.09822 5.36235 8755 ft 287 kts 82°
2026-05-07 17:38 60.10211 5.40132 9205 ft 288 kts 71°
2026-05-07 17:38 60.11322 5.43437 9704 ft 290 kts 36°
2026-05-07 17:38 60.13148 5.44931 10182 ft 290 kts
2026-05-07 17:39 60.15182 5.45127 10634 ft 296 kts 359°
2026-05-07 17:39 60.17375 5.44966 11111 ft 340 kts 356°
2026-05-07 17:39 60.19862 5.44591 11650 ft 364 kts 354°
2026-05-07 17:39 60.22385 5.44113 12228 ft 365 kts 354°
2026-05-07 17:40 60.24948 5.43596 12807 ft 369 kts 354°
2026-05-07 17:40 60.27499 5.43151 13378 ft 373 kts 358°
2026-05-07 17:40 60.30062 5.44151 13967 ft 378 kts 22°
2026-05-07 17:40 60.32223 5.47119 14539 ft 383 kts 43°
2026-05-07 17:41 60.34052 5.51130 15115 ft 387 kts 50°
2026-05-07 17:41 60.35691 5.55412 15691 ft 392 kts 56°
2026-05-07 17:41 60.36754 5.60509 16268 ft 397 kts 79°
2026-05-07 17:41 60.36747 5.66043 16839 ft 397 kts 102°
2026-05-07 17:42 60.35828 5.71347 17425 ft 400 kts 114°
2026-05-07 17:42 60.34632 5.76392 18004 ft 404 kts 117°
2026-05-07 17:42 60.33056 5.81143 18650 ft 409 kts 131°
2026-05-07 17:42 60.31062 5.85334 19278 ft 414 kts 136°
2026-05-07 17:43 60.28958 5.89306 19901 ft 418 kts 138°
2026-05-07 17:43 60.26793 5.93177 20518 ft 419 kts 139°
2026-05-07 17:43 60.24568 5.97025 21144 ft 423 kts 140°
2026-05-07 17:43 60.22319 6.00826 21771 ft 426 kts 141°
2026-05-07 17:44 60.20019 6.04647 22401 ft 427 kts 141°
2026-05-07 17:44 60.17710 6.08436 23027 ft 432 kts 141°
2026-05-07 17:44 60.15344 6.12285 23658 ft 441 kts 141°
2026-05-07 17:44 60.12948 6.16153 24278 ft 449 kts 141°
2026-05-07 17:45 60.10489 6.20103 24904 ft 453 kts 142°
2026-05-07 17:45 60.08011 6.24064 25534 ft 459 kts 142°
2026-05-07 17:45 60.05476 6.28096 26161 ft 467 kts 142°
2026-05-07 17:45 60.02920 6.32083 26783 ft 473 kts 143°
2026-05-07 17:46 60.00236 6.36043 27413 ft 479 kts 144°
2026-05-07 17:46 59.97539 6.39907 28032 ft 484 kts 145°
2026-05-07 17:46 59.94759 6.43828 28663 ft 486 kts 145°
2026-05-07 17:46 59.91969 6.47723 29293 ft 491 kts 145°
2026-05-07 17:47 59.89164 6.51613 29698 ft 502 kts 146°
2026-05-07 17:47 59.86300 6.55570 29854 ft 498 kts 146°
2026-05-07 17:47 59.80595 6.63411 29964 ft 490 kts 146°
2026-05-07 17:48 59.74977 6.71087 29993 ft 489 kts 146°
2026-05-07 17:48 59.69412 6.78655 29998 ft 487 kts 146°
2026-05-07 17:49 59.63790 6.86259 29997 ft 484 kts 146°
2026-05-07 17:49 59.58206 6.93783 29999 ft 489 kts 146°
2026-05-07 17:50 59.52592 7.01316 29999 ft 491 kts 146°
2026-05-07 17:50 59.46928 7.08885 30000 ft 490 kts 146°
2026-05-07 17:51 59.41285 7.16394 30000 ft 490 kts 146°
2026-05-07 17:51 59.35635 7.23881 30000 ft 490 kts 146°
2026-05-07 17:52 59.29999 7.31317 30001 ft 488 kts 146°
2026-05-07 17:52 59.24403 7.38668 30001 ft 488 kts 146°
2026-05-07 17:53 59.18733 7.46087 30001 ft 490 kts 146°
2026-05-07 17:53 59.13201 7.53676 30001 ft 486 kts 144°
2026-05-07 17:54 59.07699 7.61429 29999 ft 479 kts 144°
2026-05-07 17:54 59.02399 7.68924 29999 ft 473 kts 144°
2026-05-07 17:55 58.97077 7.76428 29816 ft 477 kts 144°
2026-05-07 17:55 58.94389 7.80205 29361 ft 473 kts 144°
2026-05-07 17:55 58.91738 7.83925 28909 ft 468 kts 144°
2026-05-07 17:56 58.89101 7.87617 28457 ft 465 kts 144°
2026-05-07 17:56 58.86514 7.91231 28012 ft 460 kts 144°
2026-05-07 17:56 58.83931 7.94831 27559 ft 456 kts 144°
2026-05-07 17:56 58.81356 7.98413 27104 ft 448 kts 144°
2026-05-07 17:57 58.78883 8.01845 26654 ft 428 kts 144°
2026-05-07 17:57 58.77295 8.04048 26384 ft 415 kts 144°
2026-05-07 17:57 58.74279 8.08221 26144 ft 385 kts 144°
2026-05-07 17:57 58.72165 8.11143 26071 ft 363 kts 144°
2026-05-07 17:58 58.70190 8.13864 26040 ft 352 kts 145°
2026-05-07 17:58 58.68104 8.16733 26024 ft 384 kts 145°
2026-05-07 17:58 58.65842 8.19837 26010 ft 404 kts 145°
2026-05-07 17:58 58.63555 8.22970 26004 ft 403 kts 145°
2026-05-07 17:59 58.61242 8.25976 26002 ft 402 kts 147°
2026-05-07 17:59 58.58914 8.28845 26001 ft 402 kts 148°
2026-05-07 17:59 58.56529 8.31720 26000 ft 402 kts 148°
2026-05-07 17:59 58.54166 8.34539 26001 ft 411 kts 148°
2026-05-07 18:00 58.51709 8.37459 26000 ft 416 kts 148°
2026-05-07 18:00 58.49239 8.40395 26736 ft 419 kts 152°
2026-05-07 18:00 58.46723 8.43418 26402 ft 434 kts 151°
2026-05-07 18:00 58.44168 8.46470 26254 ft 428 kts 151°
2026-05-07 18:01 58.41639 8.49481 26184 ft 428 kts 151°
2026-05-07 18:01 58.39104 8.52491 25983 ft 430 kts 151°
2026-05-07 18:01 58.36602 8.55457 25543 ft 427 kts 151°
2026-05-07 18:01 58.34079 8.58447 25099 ft 422 kts 151°
2026-05-07 18:02 58.29141 8.64286 24232 ft 416 kts 151°
2026-05-07 18:02 58.26677 8.67197 23802 ft 414 kts 151°
2026-05-07 18:02 58.24232 8.70078 23308 ft 410 kts 151°
2026-05-07 18:03 58.21858 8.72916 22817 ft 406 kts 147°
2026-05-07 18:03 58.19604 8.76119 22331 ft 400 kts 152°
2026-05-07 18:03 58.17076 8.78222 21847 ft 393 kts 163°
2026-05-07 18:03 58.14513 8.79834 21372 ft 389 kts 166°
2026-05-07 18:04 58.11937 8.81340 20914 ft 384 kts 166°
2026-05-07 18:04 58.09381 8.82810 20441 ft 381 kts 166°
2026-05-07 18:04 58.06879 8.84266 19984 ft 378 kts 166°
2026-05-07 18:04 58.04364 8.85765 19543 ft 375 kts 165°
2026-05-07 18:05 58.01888 8.87279 19108 ft 372 kts 165°
2026-05-07 18:05 57.99460 8.88798 18676 ft 369 kts 164°
2026-05-07 18:05 57.97020 8.90355 18216 ft 366 kts 163°
2026-05-07 18:05 57.94640 8.91899 17731 ft 364 kts 163°
2026-05-07 18:06 57.92256 8.93465 17238 ft 361 kts 163°
2026-05-07 18:06 57.89886 8.95039 16751 ft 358 kts 163°
2026-05-07 18:06 57.87567 8.96592 16284 ft 355 kts 162°
2026-05-07 18:06 57.85260 8.98147 15829 ft 352 kts 162°
2026-05-07 18:07 57.82937 8.99719 15355 ft 350 kts 162°
2026-05-07 18:07 57.80660 9.01266 14908 ft 347 kts 162°
2026-05-07 18:07 57.78407 9.02799 14464 ft 345 kts 162°
2026-05-07 18:07 57.76148 9.04338 14030 ft 342 kts 162°
2026-05-07 18:08 57.73941 9.05843 13561 ft 340 kts 161°
2026-05-07 18:08 57.71727 9.07355 13317 ft 336 kts 161°
2026-05-07 18:08 57.69518 9.08864 13214 ft 336 kts 161°
2026-05-07 18:08 57.67338 9.10353 13169 ft 336 kts 161°
2026-05-07 18:09 57.65130 9.11859 13142 ft 336 kts 161°
2026-05-07 18:09 57.62958 9.13340 13134 ft 337 kts 161°
2026-05-07 18:09 57.60733 9.14855 12686 ft 337 kts 161°
2026-05-07 18:09 57.58555 9.16337 12219 ft 333 kts 161°
2026-05-07 18:10 57.56370 9.17823 11745 ft 331 kts 161°
2026-05-07 18:10 57.54208 9.19292 11282 ft 329 kts 161°
2026-05-07 18:10 57.52090 9.20730 10831 ft 326 kts 161°
2026-05-07 18:10 57.49957 9.22176 10388 ft 323 kts 161°
2026-05-07 18:11 57.47886 9.23580 9932 ft 310 kts 161°
2026-05-07 18:11 57.46555 9.24483 9605 ft 302 kts 161°
2026-05-07 18:11 57.43986 9.26223 8965 ft 289 kts 161°
2026-05-07 18:11 57.42110 9.27492 8491 ft 284 kts 161°
2026-05-07 18:12 57.40282 9.28726 8024 ft 279 kts 161°
2026-05-07 18:12 57.38464 9.29950 7561 ft 275 kts 162°
2026-05-07 18:12 57.36668 9.31156 7112 ft 272 kts 162°
2026-05-07 18:12 57.34909 9.32335 6655 ft 268 kts 162°
2026-05-07 18:13 57.33160 9.33507 6291 ft 264 kts 162°
2026-05-07 18:13 57.31450 9.34655 6057 ft 264 kts 162°
2026-05-07 18:13 57.29708 9.35822 5561 ft 262 kts 162°
2026-05-07 18:13 57.28043 9.36944 5161 ft 240 kts 162°
2026-05-07 18:14 57.26519 9.37974 4701 ft 235 kts 162°
2026-05-07 18:14 57.24985 9.38992 4311 ft 231 kts 162°
2026-05-07 18:14 57.23512 9.39968 4144 ft 219 kts 162°
2026-05-07 18:14 57.22044 9.40803 4075 ft 221 kts 169°
2026-05-07 18:15 57.20560 9.41341 4035 ft 218 kts 172°
2026-05-07 18:15 57.19058 9.41793 4022 ft 218 kts 173°
2026-05-07 18:15 57.18062 9.42074 4018 ft 218 kts 173°
2026-05-07 18:15 57.16066 9.42619 4008 ft 218 kts 174°
2026-05-07 18:16 57.15044 9.42896 4012 ft 218 kts 174°
2026-05-07 18:16 57.13556 9.43297 4007 ft 218 kts 174°
2026-05-07 18:16 57.12030 9.43702 3523 ft 227 kts 173°
2026-05-07 18:16 57.10498 9.44277 3241 ft 223 kts 154°
2026-05-07 18:17 57.09356 9.46180 3146 ft 222 kts 128°
2026-05-07 18:17 57.08566 9.48539 3061 ft 211 kts 122°
2026-05-07 18:17 57.07827 9.50781 3040 ft 202 kts 123°
2026-05-07 18:17 57.07187 9.53048 2998 ft 203 kts 104°
2026-05-07 18:18 57.07368 9.55594 2966 ft 203 kts 67°
2026-05-07 18:18 57.07976 9.57932 2999 ft 203 kts 69°
2026-05-07 18:18 57.08189 9.60485 2863 ft 204 kts 93°
2026-05-07 18:18 57.08148 9.63044 2428 ft 194 kts 92°
2026-05-07 18:19 57.08171 9.65432 2007 ft 178 kts 86°
2026-05-07 18:19 57.08325 9.67582 1757 ft 167 kts 83°
2026-05-07 18:19 57.08498 9.69685 1563 ft 161 kts 84°
2026-05-07 18:19 57.08620 9.71613 1374 ft 142 kts 86°
2026-05-07 18:20 57.08714 9.73350 1196 ft 134 kts 86°
2026-05-07 18:20 57.08828 9.75044 1005 ft 132 kts 82°
2026-05-07 18:20 57.08974 9.76707 783 ft 132 kts 83°
2026-05-07 18:20 57.09089 9.78356 571 ft 128 kts 85°
2026-05-07 18:21 57.09174 9.79967 439 ft 128 kts 84°
2026-05-07 18:21 57.09273 9.81633 239 ft 124 kts 85°
2026-05-07 18:21 57.09365 9.83184 56 ft 118 kts 85°
2026-05-07 18:21 57.09452 9.84648 22 ft 102 kts 83°
2026-05-07 18:22 57.09502 9.85401 18 ft 19 kts 84°
2026-05-07 18:22 57.09507 9.85474 17 ft 2 kts 83°
2026-05-07 18:22 57.09473 9.85707 18 ft 10 kts 140°
2026-05-07 18:22 57.09403 9.85805 21 ft 14 kts 143°
2026-05-07 18:23 57.09333 9.85905 19 ft 12 kts 142°
2026-05-07 18:23 57.09283 9.85966 20 ft 10 kts 142°
2026-05-07 18:23 57.09227 9.86051 20 ft 14 kts 141°
2026-05-07 18:23 57.09123 9.86200 20 ft 18 kts 142°
2026-05-07 18:24 57.09045 9.86308 20 ft 10 kts 142°
2026-05-07 18:24 57.08999 9.86375 20 ft 10 kts 141°
2026-05-07 18:24 57.08932 9.86472 20 ft 13 kts 141°
2026-05-07 18:24 57.08860 9.86578 20 ft 14 kts 142°
2026-05-07 18:25 57.08795 9.86669 20 ft 9 kts 143°
2026-05-07 18:25 57.08748 9.86737 20 ft 10 kts 141°
2026-05-07 18:25 57.08702 9.86808 20 ft 8 kts 137°
2026-05-07 18:25 57.08705 9.86866 20 ft 5 kts 47°
2026-05-07 18:26 57.08733 9.86923 20 ft 5 kts 49°
2026-05-07 18:26 57.08737 9.86932 20 ft 0 kts 53°